Time,TemperatureF,DewpointF,PressureIn,WindDirection,WindDirectionDegrees,WindSpeedMPH,WindSpeedGustMPH,Humidity,HourlyPrecipIn,Conditions,Clouds,dailyrainin,SoftwareType,DateUTC
2013-03-22 00:03:00,18.9,10.4,29.74,West,270,7.3,-999.0,69,-99.99,,,0.00,Acu-Link.com,2013-03-22 04:03:00,
2013-03-22 00:18:00,18.7,10.6,29.74,WNW,292,10.4,-999.0,70,-99.99,,,0.00,Acu-Link.com,2013-03-22 04:18:00,
2013-03-22 00:33:00,18.7,10.6,29.74,West,270,12.5,-999.0,70,-99.99,,,0.00,Acu-Link.com,2013-03-22 04:33:00,
2013-03-22 00:48:00,18.5,10.4,29.75,SW,225,10.4,-999.0,70,-99.99,,,0.00,Acu-Link.com,2013-03-22 04:48:00,
2013-03-22 01:03:00,18.3,10.2,29.75,WSW,247,6.8,-999.0,70,-99.99,,,0.00,Acu-Link.com,2013-03-22 05:03:00,
2013-03-22 01:18:00,18.1,10.0,29.75,WNW,292,11.9,-999.0,70,-99.99,,,0.00,Acu-Link.com,2013-03-22 05:18:00,
2013-03-22 01:33:00,18.1,10.0,29.74,WNW,292,9.4,-999.0,70,-99.99,,,0.00,Acu-Link.com,2013-03-22 05:33:00,
2013-03-22 01:48:00,17.8,10.6,29.74,West,270,6.8,-999.0,73,-99.99,,,0.00,Acu-Link.com,2013-03-22 05:48:00,
2013-03-22 02:04:00,17.2,10.4,29.74,SE,135,3.7,-999.0,74,-99.99,,,0.00,Acu-Link.com,2013-03-22 06:04:00,
2013-03-22 02:19:00,17.1,10.0,29.74,WSW,247,4.2,-999.0,73,-99.99,,,0.00,Acu-Link.com,2013-03-22 06:19:00,
2013-03-22 02:34:00,17.1,9.7,29.74,WNW,292,3.2,-999.0,72,-99.99,,,0.00,Acu-Link.com,2013-03-22 06:34:00,
2013-03-22 02:49:00,17.2,9.8,29.74,WSW,247,5.8,-999.0,72,-99.99,,,0.00,Acu-Link.com,2013-03-22 06:49:00,
2013-03-22 03:04:00,16.9,9.8,29.74,SW,225,3.7,-999.0,73,-99.99,,,0.00,Acu-Link.com,2013-03-22 07:04:00,
2013-03-22 03:19:00,16.2,9.7,29.73,West,270,3.2,-999.0,75,-99.99,,,0.00,Acu-Link.com,2013-03-22 07:19:00,
2013-03-22 03:35:00,16.5,10.0,29.73,West,270,4.2,-999.0,75,-99.99,,,0.00,Acu-Link.com,2013-03-22 07:35:00,
2013-03-22 03:50:00,16.5,10.0,29.73,West,270,6.8,-999.0,75,-99.99,,,0.00,Acu-Link.com,2013-03-22 07:50:00,
2013-03-22 04:05:00,15.6,9.4,29.72,NE,45,2.2,-999.0,76,-99.99,,,0.00,Acu-Link.com,2013-03-22 08:05:00,
2013-03-22 04:21:00,15.1,9.8,29.73,WNW,292,0.0,-999.0,79,-99.99,,,0.00,Acu-Link.com,2013-03-22 08:21:00,
2013-03-22 04:36:00,15.6,9.4,29.73,West,270,4.2,-999.0,76,-99.99,,,0.00,Acu-Link.com,2013-03-22 08:36:00,
2013-03-22 05:06:00,16.0,9.5,29.72,West,270,6.3,-999.0,75,-99.99,,,0.00,Acu-Link.com,2013-03-22 09:06:00,
2013-03-22 05:21:00,15.4,9.2,29.73,WSW,247,1.7,-999.0,76,-99.99,,,0.00,Acu-Link.com,2013-03-22 09:21:00,
2013-03-22 05:37:00,15.4,9.8,29.74,WNW,292,6.8,-999.0,78,-99.99,,,0.00,Acu-Link.com,2013-03-22 09:37:00,
2013-03-22 05:52:00,15.8,9.9,29.74,WNW,292,7.3,-999.0,77,-99.99,,,0.00,Acu-Link.com,2013-03-22 09:52:00,
2013-03-22 06:07:00,15.8,9.6,29.74,SW,225,5.3,-999.0,76,-99.99,,,0.00,Acu-Link.com,2013-03-22 10:07:00,
2013-03-22 06:23:00,15.3,9.7,29.75,West,270,4.2,-999.0,78,-99.99,,,0.00,Acu-Link.com,2013-03-22 10:23:00,
2013-03-22 06:38:00,15.1,9.8,29.76,SW,225,5.3,-999.0,79,-99.99,,,0.00,Acu-Link.com,2013-03-22 10:38:00,
2013-03-22 06:53:00,15.1,9.5,29.77,WSW,247,4.7,-999.0,78,-99.99,,,0.00,Acu-Link.com,2013-03-22 10:53:00,
2013-03-22 07:08:00,15.1,9.5,29.77,West,270,4.7,-999.0,78,-99.99,,,0.00,Acu-Link.com,2013-03-22 11:08:00,
2013-03-22 07:23:00,15.1,8.9,29.78,West,270,3.7,-999.0,76,-99.99,,,0.00,Acu-Link.com,2013-03-22 11:23:00,
2013-03-22 07:38:00,15.6,9.1,29.79,West,270,4.2,-999.0,75,-99.99,,,0.00,Acu-Link.com,2013-03-22 11:38:00,
2013-03-22 07:53:00,16.9,9.5,29.79,West,270,3.7,-999.0,72,-99.99,,,0.00,Acu-Link.com,2013-03-22 11:53:00,
2013-03-22 08:08:00,17.8,9.7,29.80,WSW,247,8.3,-999.0,70,-99.99,,,0.00,Acu-Link.com,2013-03-22 12:08:00,
2013-03-22 08:23:00,19.0,9.9,29.81,West,270,6.3,-999.0,67,-99.99,,,0.00,Acu-Link.com,2013-03-22 12:23:00,
2013-03-22 08:39:00,19.9,10.1,29.80,West,270,6.8,-999.0,65,-99.99,,,0.00,Acu-Link.com,2013-03-22 12:39:00,
2013-03-22 08:54:00,20.7,10.1,29.81,West,270,13.0,-999.0,63,-99.99,,,0.00,Acu-Link.com,2013-03-22 12:54:00,
2013-03-22 09:09:00,21.7,10.7,29.81,West,270,6.3,-999.0,62,-99.99,,,0.00,Acu-Link.com,2013-03-22 13:09:00,
2013-03-22 09:24:00,23.0,10.5,29.81,West,270,7.8,-999.0,58,-99.99,,,0.00,Acu-Link.com,2013-03-22 13:24:00,
2013-03-22 09:40:00,23.0,10.5,29.81,WSW,247,11.4,-999.0,58,-99.99,,,0.00,Acu-Link.com,2013-03-22 13:40:00,
2013-03-22 09:55:00,24.3,11.3,29.81,NNE,22,4.2,-999.0,57,-99.99,,,0.00,Acu-Link.com,2013-03-22 13:55:00,
2013-03-22 10:10:00,24.4,11.0,29.81,West,270,4.7,-999.0,56,-99.99,,,0.00,Acu-Link.com,2013-03-22 14:10:00,
2013-03-22 10:25:00,25.5,11.2,29.81,West,270,6.8,-999.0,54,-99.99,,,0.00,Acu-Link.com,2013-03-22 14:25:00,
2013-03-22 10:41:00,26.8,11.6,29.81,NW,315,7.8,-999.0,52,-99.99,,,0.00,Acu-Link.com,2013-03-22 14:41:00,
2013-03-22 10:56:00,27.0,11.7,29.81,WSW,247,5.3,-999.0,52,-99.99,,,0.00,Acu-Link.com,2013-03-22 14:56:00,
2013-03-22 11:11:00,28.9,13.1,29.81,West,270,7.8,-999.0,51,-99.99,,,0.00,Acu-Link.com,2013-03-22 15:11:00,
2013-03-22 11:41:00,29.3,12.5,29.80,West,270,2.7,-999.0,49,-99.99,,,0.00,Acu-Link.com,2013-03-22 15:41:00,
2013-03-22 11:56:00,31.5,13.1,29.80,SW,225,6.8,-999.0,46,-99.99,,,0.00,Acu-Link.com,2013-03-22 15:56:00,
2013-03-22 12:12:00,31.3,12.5,29.80,West,270,6.8,-999.0,45,-99.99,,,0.00,Acu-Link.com,2013-03-22 16:12:00,
2013-03-22 12:27:00,32.2,12.8,29.80,West,270,5.3,-999.0,44,-99.99,,,0.00,Acu-Link.com,2013-03-22 16:27:00,
2013-03-22 12:42:00,34.5,14.3,29.79,West,270,6.3,-999.0,43,-99.99,,,0.00,Acu-Link.com,2013-03-22 16:42:00,
2013-03-22 13:12:00,35.8,12.7,29.78,WNW,292,5.3,-999.0,38,-99.99,,,0.00,Acu-Link.com,2013-03-22 17:12:00,
2013-03-22 13:27:00,37.6,13.1,29.76,West,270,8.9,-999.0,36,-99.99,,,0.00,Acu-Link.com,2013-03-22 17:27:00,
2013-03-22 13:42:00,37.6,13.7,29.76,West,270,4.2,-999.0,37,-99.99,,,0.00,Acu-Link.com,2013-03-22 17:42:00,
2013-03-22 13:58:00,38.1,12.9,29.75,West,270,10.4,-999.0,35,-99.99,,,0.00,Acu-Link.com,2013-03-22 17:58:00,
2013-03-22 14:13:00,38.5,12.6,29.73,West,270,8.9,-999.0,34,-99.99,,,0.00,Acu-Link.com,2013-03-22 18:13:00,
2013-03-22 14:28:00,39.7,13.7,29.72,West,270,9.4,-999.0,34,-99.99,,,0.00,Acu-Link.com,2013-03-22 18:28:00,
2013-03-22 14:43:00,40.5,12.3,29.72,West,270,9.9,-999.0,31,-99.99,,,0.00,Acu-Link.com,2013-03-22 18:43:00,
2013-03-22 14:58:00,41.5,12.4,29.71,SW,225,14.0,-999.0,30,-99.99,,,0.00,Acu-Link.com,2013-03-22 18:58:00,
2013-03-22 15:13:00,40.6,12.4,29.71,West,270,6.3,-999.0,31,-99.99,,,0.00,Acu-Link.com,2013-03-22 19:13:00,
2013-03-22 15:28:00,41.5,10.9,29.71,West,270,8.3,-999.0,28,-99.99,,,0.00,Acu-Link.com,2013-03-22 19:28:00,
2013-03-22 15:43:00,43.3,12.4,29.70,West,270,9.4,-999.0,28,-99.99,,,0.00,Acu-Link.com,2013-03-22 19:43:00,
2013-03-22 15:58:00,42.4,11.6,29.71,WNW,292,4.7,-999.0,28,-99.99,,,0.00,Acu-Link.com,2013-03-22 19:58:00,
2013-03-22 16:13:00,42.8,12.0,29.71,NW,315,8.3,-999.0,28,-99.99,,,0.00,Acu-Link.com,2013-03-22 20:13:00,
2013-03-22 16:28:00,44.2,13.2,29.71,West,270,7.3,-999.0,28,-99.99,,,0.00,Acu-Link.com,2013-03-22 20:28:00,
2013-03-22 16:43:00,43.9,12.9,29.71,WNW,292,5.8,-999.0,28,-99.99,,,0.00,Acu-Link.com,2013-03-22 20:43:00,
2013-03-22 16:58:00,43.3,13.2,29.71,West,270,4.7,-999.0,29,-99.99,,,0.00,Acu-Link.com,2013-03-22 20:58:00,
2013-03-22 17:13:00,45.9,15.5,29.71,West,270,5.3,-999.0,29,-99.99,,,0.00,Acu-Link.com,2013-03-22 21:13:00,
2013-03-22 17:28:00,44.4,14.2,29.71,West,270,6.3,-999.0,29,-99.99,,,0.00,Acu-Link.com,2013-03-22 21:28:00,
2013-03-22 17:44:00,44.4,14.2,29.72,West,270,8.3,-999.0,29,-99.99,,,0.00,Acu-Link.com,2013-03-22 21:44:00,
2013-03-22 17:59:00,43.9,14.5,29.71,SW,225,6.3,-999.0,30,-99.99,,,0.00,Acu-Link.com,2013-03-22 21:59:00,
2013-03-22 18:14:00,44.6,14.3,29.72,West,270,5.8,-999.0,29,-99.99,,,0.00,Acu-Link.com,2013-03-22 22:14:00,
2013-03-22 18:29:00,43.9,13.7,29.72,WSW,247,10.4,-999.0,29,-99.99,,,0.00,Acu-Link.com,2013-03-22 22:29:00,
2013-03-22 18:44:00,43.3,14.0,29.72,West,270,8.3,-999.0,30,-99.99,,,0.00,Acu-Link.com,2013-03-22 22:44:00,
2013-03-22 18:59:00,42.8,14.3,29.73,WNW,292,11.4,-999.0,31,-99.99,,,0.00,Acu-Link.com,2013-03-22 22:59:00,
2013-03-22 19:14:00,40.6,14.5,29.74,WSW,247,5.3,-999.0,34,-99.99,,,0.00,Acu-Link.com,2013-03-22 23:14:00,
2013-03-22 19:29:00,39.4,14.7,29.75,WSW,247,4.2,-999.0,36,-99.99,,,0.00,Acu-Link.com,2013-03-22 23:29:00,
2013-03-22 19:45:00,37.9,14.6,29.76,West,270,3.7,-999.0,38,-99.99,,,0.00,Acu-Link.com,2013-03-22 23:45:00,
2013-03-22 20:00:00,37.0,14.4,29.76,NNE,22,2.7,-999.0,39,-99.99,,,0.00,Acu-Link.com,2013-03-23 00:00:00,
2013-03-22 20:15:00,35.4,15.2,29.76,SW,225,2.2,-999.0,43,-99.99,,,0.00,Acu-Link.com,2013-03-23 00:15:00,
2013-03-22 20:30:00,34.7,15.6,29.77,WSW,247,2.2,-999.0,45,-99.99,,,0.00,Acu-Link.com,2013-03-23 00:30:00,
2013-03-22 20:46:00,33.8,14.7,29.78,SW,225,3.2,-999.0,45,-99.99,,,0.00,Acu-Link.com,2013-03-23 00:46:00,
2013-03-22 21:16:00,31.3,14.4,29.79,SSW,202,0.0,-999.0,49,-99.99,,,0.00,Acu-Link.com,2013-03-23 01:16:00,
2013-03-22 21:31:00,32.0,14.6,29.79,WSW,247,2.7,-999.0,48,-99.99,,,0.00,Acu-Link.com,2013-03-23 01:31:00,
2013-03-22 21:47:00,32.5,14.0,29.79,SW,225,4.2,-999.0,46,-99.99,,,0.00,Acu-Link.com,2013-03-23 01:47:00,
2013-03-22 22:02:00,32.0,14.6,29.80,SW,225,0.0,-999.0,48,-99.99,,,0.00,Acu-Link.com,2013-03-23 02:02:00,
2013-03-22 22:17:00,30.9,14.0,29.79,SW,225,3.7,-999.0,49,-99.99,,,0.00,Acu-Link.com,2013-03-23 02:17:00,
2013-03-22 22:33:00,30.0,13.6,29.80,SW,225,2.7,-999.0,50,-99.99,,,0.00,Acu-Link.com,2013-03-23 02:33:00,
2013-03-22 22:48:00,28.8,14.7,29.80,WSW,247,1.7,-999.0,55,-99.99,,,0.00,Acu-Link.com,2013-03-23 02:48:00,
2013-03-22 23:03:00,28.9,13.5,29.80,SW,225,3.2,-999.0,52,-99.99,,,0.00,Acu-Link.com,2013-03-23 03:03:00,
2013-03-22 23:19:00,28.8,14.3,29.81,WSW,247,2.7,-999.0,54,-99.99,,,0.00,Acu-Link.com,2013-03-23 03:19:00,
2013-03-22 23:34:00,28.8,15.1,29.81,WSW,247,2.2,-999.0,56,-99.99,,,0.00,Acu-Link.com,2013-03-23 03:34:00,
2013-03-22 23:49:00,28.2,14.5,29.82,ENE,67,0.0,-999.0,56,-99.99,,,0.00,Acu-Link.com,2013-03-23 03:49:00,